Theta_e
358 357 360 360 357 357 359 359 357 361 363 357 358 356 353 355 349 347 346 349 344 349 352 348 356 359 356 358 352 352 353 358 359 353 355 357 360 355 349 351 351 352 351 352 352 354 355 355 354 355 356 355 355 356 356 357 356 355 354 355 355 354 356 361 359 357 356 354 349 348 346 344 343 342
363 360 359 358 355 359 359 358 359 363 367 361 360 360 361 362 354 352 348 350 350 349 351 351 350 358 357 349 348 347 348 358 359 355 356 356 359 350 349 351 352 350 349 349 349 351 352 352 351 351 351 351 352 353 354 354 353 353 352 352 352 350 349 354 356 357 356 353 349 347 346 343 342 343
362 364 360 361 357 360 359 361 357 361 364 362 361 361 363 362 361 358 355 350 354 351 351 353 353 350 351 348 348 344 345 357 356 357 360 360 358 352 362 354 351 349 347 347 346 346 348 347 347 347 349 350 351 351 351 350 349 350 348 347 346 345 345 347 353 356 356 351 349 347 346 344 341 342
363 365 364 364 362 361 362 362 360 359 363 364 359 360 362 363 364 362 357 353 349 356 353 353 348 348 348 347 347 351 348 363 358 361 359 362 360 369 364 353 351 348 347 346 344 344 343 343 344 347 348 348 349 349 348 345 345 345 344 342 340 339 340 341 349 354 354 351 348 347 346 345 342 342
362 364 364 365 364 365 362 360 358 357 357 360 360 362 361 359 362 362 362 358 355 359 360 354 350 349 352 345 352 351 351 352 357 357 360 361 358 360 361 365 350 349 347 345 343 342 342 341 342 345 347 346 345 344 343 340 339 340 338 336 334 334 336 339 345 352 353 350 348 347 346 345 343 343
359 362 364 364 364 366 366 363 359 357 355 355 354 357 358 358 358 364 360 357 355 353 359 354 354 348 351 347 353 354 352 355 361 359 358 356 359 359 360 360 362 348 348 346 342 342 341 340 341 343 344 343 341 340 338 335 334 334 333 331 331 332 333 335 342 349 350 350 349 347 346 345 344 343
361 359 362 362 364 360 361 363 362 360 358 358 358 356 356 356 357 359 362 360 355 352 351 354 350 348 349 350 352 355 355 361 360 360 356 351 352 358 360 358 357 347 349 347 345 343 341 341 339 339 341 341 337 336 334 331 330 330 328 328 329 330 331 331 337 344 347 349 349 348 346 345 344 344
358 357 359 358 359 361 362 363 360 360 359 360 361 360 360 358 356 357 356 359 358 355 350 354 352 351 353 352 354 353 356 356 358 361 364 362 360 365 362 361 360 352 348 347 346 344 342 340 338 336 336 335 332 330 330 329 329 328 327 326 327 327 328 328 330 339 341 343 344 346 345 345 344 343
361 359 359 358 361 362 362 364 361 360 360 361 360 359 359 358 358 357 357 357 358 357 353 352 355 355 356 357 359 361 358 358 359 360 361 363 365 367 363 359 358 351 343 347 346 343 343 342 338 336 334 334 333 331 330 328 327 326 325 325 326 326 327 327 327 330 333 336 339 337 339 341 342 340
361 360 362 363 363 362 361 360 361 364 363 362 358 359 358 357 357 358 359 358 360 357 354 355 353 358 354 355 358 361 363 358 355 359 363 364 366 366 362 360 359 362 361 361 361 344 343 339 336 337 335 333 332 331 330 328 327 325 323 321 323 324 324 325 327 327 327 330 334 335 335 337 337 337
361 361 361 363 363 363 363 361 362 363 363 359 360 360 360 356 357 354 354 353 354 355 354 352 353 353 355 359 355 357 364 365 365 361 360 360 363 363 361 359 361 363 360 355 347 350 349 348 346 332 333 333 332 332 330 329 327 326 323 321 323 323 323 323 325 325 324 326 327 327 328 332 336 337
362 362 361 361 361 362 364 366 366 365 362 363 361 360 361 362 359 357 354 353 353 350 350 349 349 348 353 355 360 359 362 360 362 363 359 357 355 356 359 360 360 362 362 361 358 351 347 347 340 330 334 334 331 332 333 332 330 327 324 323 325 325 323 323 323 323 323 322 321 321 321 324 329 333
362 362 362 360 359 362 361 366 367 368 369 363 362 363 363 364 361 362 357 355 356 354 350 353 352 351 352 354 353 351 352 352 356 361 363 357 355 355 355 359 365 364 359 359 358 358 351 348 355 356 350 346 342 338 334 333 332 327 323 323 324 324 323 323 323 323 322 321 321 320 320 321 325 330
362 361 362 359 359 363 364 366 370 369 366 365 364 366 365 364 366 362 360 359 357 355 351 351 350 348 347 346 349 348 349 352 359 358 358 352 353 356 356 357 362 362 358 355 355 357 354 348 353 354 349 343 342 339 336 331 328 325 323 323 323 323 323 323 323 322 321 321 321 320 319 321 321 321
362 360 361 361 359 361 364 368 369 369 371 370 372 370 369 369 365 362 356 355 354 353 352 351 350 347 346 347 349 350 349 355 357 356 356 355 357 356 352 350 356 362 357 355 352 354 355 352 348 353 348 341 337 335 331 327 326 323 323 322 322 322 323 323 325 324 322 321 320 320 320 321 320 319
361 360 361 361 360 361 362 360 359 357 362 367 371 369 370 369 369 370 367 358 352 353 354 353 351 350 348 352 354 352 356 359 357 357 358 358 357 354 351 351 349 356 357 352 350 349 354 349 345 352 346 340 334 328 326 325 324 323 322 322 322 322 322 323 324 324 324 323 323 322 322 322 322 320
362 365 363 361 362 364 361 360 359 360 360 362 368 368 368 368 369 353 350 355 362 354 354 355 354 355 357 355 357 361 360 362 357 357 355 356 354 355 351 350 349 353 357 351 347 344 348 349 345 347 346 341 339 331 327 324 324 323 322 321 321 321 321 321 322 323 323 322 322 321 321 320 321 319
362 362 366 364 363 363 363 363 363 365 364 363 365 369 365 365 369 362 352 357 361 364 355 356 356 361 366 361 363 364 363 359 356 354 353 357 353 352 349 351 352 355 351 347 341 341 342 346 340 344 349 341 334 331 325 322 322 322 321 320 319 319 319 320 320 320 320 321 320 319 318 318 318 318
360 363 363 364 364 365 364 364 365 364 363 363 361 363 361 360 363 366 365 364 365 367 362 362 363 365 364 362 362 361 362 361 358 357 354 353 352 351 354 352 350 350 349 346 337 332 335 346 340 339 346 342 340 331 323 321 322 321 321 320 319 318 318 318 318 318 317 317 317 316 316 316 315 315
363 363 366 364 361 361 360 355 343 352 363 362 360 360 360 361 360 358 351 334 341 358 363 364 360 355 346 338 349 348 348 355 357 357 354 352 350 346 342 338 333 336 342 341 335 330 329 343 338 335 338 343 342 338 330 324 323 322 321 321 319 318 316 316 317 317 316 316 315 315 314 314 313 313
365 364 360 360 361 361 356 332 326 332 346 359 359 357 356 355 355 357 347 333 328 326 323 322 324 325 326 326 325 325 328 342 343 345 343 340 336 335 332 332 328 329 339 337 335 327 327 339 337 333 332 336 342 341 337 331 323 321 320 320 319 318 317 316 316 316 316 315 314 314 313 311 314 316
364 354 357 354 353 347 336 322 322 326 345 356 359 358 355 351 353 355 350 350 339 328 327 327 327 328 329 330 330 330 330 331 339 337 331 330 330 330 330 326 327 325 335 332 332 327 326 335 336 333 333 333 338 338 340 340 332 320 319 318 319 319 318 317 315 316 316 315 314 313 311 310 313 336
357 348 343 341 334 334 327 317 320 322 341 352 356 356 355 352 350 347 348 348 344 343 342 343 345 343 343 342 339 339 338 339 336 335 333 332 330 330 331 331 331 326 332 329 332 328 327 330 331 332 328 327 335 341 339 337 338 338 337 333 332 319 321 319 316 315 314 315 314 313 311 310 315 342
349 346 339 332 321 318 317 315 315 318 323 345 351 351 350 346 347 348 350 348 349 346 343 341 340 338 338 337 336 337 337 336 337 334 334 333 332 332 329 327 328 328 329 329 329 328 329 331 329 333 328 326 323 328 333 336 335 335 334 332 331 323 323 319 317 312 314 315 313 312 311 310 313 333
343 341 339 335 322 315 314 313 311 314 319 332 345 343 343 341 342 346 344 338 338 335 335 335 335 337 342 335 334 333 335 333 334 334 333 333 332 330 326 324 324 326 328 327 328 330 326 327 330 329 326 327 326 326 330 332 336 333 334 333 331 331 332 332 328 332 313 311 311 312 310 311 311 320
338 338 336 334 323 313 313 312 311 312 318 325 340 332 318 321 328 339 340 336 334 334 334 334 335 336 334 334 331 330 331 331 332 332 332 333 333 331 330 328 325 324 325 329 326 328 324 325 327 324 325 324 323 323 324 326 332 332 334 333 332 331 331 330 328 329 330 329 329 319 320 313 315 313
336 337 335 332 323 310 308 309 311 314 320 330 323 313 317 320 326 334 335 333 332 332 332 333 333 335 331 330 328 328 329 330 332 331 331 331 330 331 330 328 329 327 326 329 329 327 325 322 326 323 321 324 323 324 326 326 329 332 328 329 332 332 331 327 325 325 326 325 328 314 311 310 311 314
331 332 331 324 309 307 306 309 311 314 322 325 312 316 321 325 331 335 333 332 333 335 335 332 330 328 328 329 328 328 330 329 332 331 330 329 328 328 328 328 328 327 326 325 327 327 326 323 322 325 324 322 322 321 322 324 327 328 326 327 326 330 329 326 324 325 324 326 326 326 326 325 329 326
326 317 310 308 310 313 316 316 318 320 320 315 316 318 326 335 335 334 334 333 332 330 329 327 326 326 327 328 329 330 331 332 332 332 331 330 330 330 330 329 328 328 324 322 324 325 324 323 322 324 323 323 323 324 323 324 323 323 325 324 322 325 326 327 325 323 322 323 324 324 324 323 323 324
321 317 314 313 318 324 328 336 335 335 332 323 324 326 332 332 330 330 331 330 328 325 324 324 323 325 325 325 328 330 330 329 326 327 326 325 325 326 325 323 325 327 326 324 323 322 323 322 322 322 321 321 322 323 325 323 322 323 325 324 324 323 328 325 323 323 323 320 321 324 326 325 324 319
331 330 330 327 320 321 323 327 329 329 330 331 330 330 329 328 328 329 328 327 326 325 324 324 324 324 325 326 326 324 325 324 324 326 324 322 322 323 323 322 323 323 324 326 324 324 323 323 323 323 319 320 321 324 327 325 321 322 324 325 323 317 321 324 323 322 322 320 321 322 327 325 325 324
333 332 328 326 333 331 331 331 332 332 333 333 331 327 324 323 324 325 326 326 326 326 326 326 326 324 326 321 321 323 322 322 322 324 324 322 322 321 322 321 321 320 321 321 321 324 322 323 322 322 322 321 320 323 325 323 321 323 323 323 322 321 321 320 319 320 322 320 320 321 323 323 322 324
332 333 330 330 329 330 328 328 328 327 326 325 325 325 326 325 323 323 322 322 323 325 325 324 323 321 321 322 322 321 321 321 321 322 322 324 321 323 322 319 319 319 318 318 319 321 323 322 323 322 322 324 324 324 321 317 320 323 321 321 320 319 319 319 319 319 322 320 320 319 320 323 324 323
330 329 328 326 327 327 327 326 326 324 323 323 322 323 323 324 324 324 324 324 324 325 324 323 322 322 322 320 320 320 319 321 321 322 318 321 322 320 318 317 319 320 318 318 318 319 320 320 320 321 323 324 325 324 320 316 314 316 318 318 318 318 318 320 319 320 320 318 318 317 318 318 323 323
328 327 326 325 325 324 324 323 323 324 323 323 324 323 323 323 322 322 322 322 323 323 322 322 322 322 322 321 320 319 319 318 318 319 320 320 320 319 317 316 316 317 317 317 316 317 317 317 317 317 318 320 321 324 315 319 315 316 316 316 318 317 318 319 318 319 319 319 319 317 316 318 319 321
327 326 325 324 325 324 322 322 323 322 321 321 322 322 321 320 321 321 320 321 321 321 321 320 319 319 319 319 319 318 317 316 318 317 317 317 316 316 316 316 316 316 316 316 315 316 315 315 314 313 312 312 312 313 314 314 317 315 312 313 315 315 317 318 318 318 317 318 318 316 314 315 316 318
324 326 326 325 326 325 323 324 325 325 323 322 321 321 320 318 319 321 322 322 318 317 316 317 317 317 317 316 317 316 316 315 313 314 314 315 315 314 313 313 314 314 313 315 315 314 315 313 313 312 311 309 310 309 312 315 311 315 318 313 314 314 314 314 315 316 316 317 316 315 315 315 315 316
325 325 324 324 325 324 324 324 324 323 322 322 321 320 319 319 318 319 322 320 318 317 316 314 313 313 313 313 312 311 311 311 311 311 311 311 311 312 311 309 309 310 310 311 313 313 314 313 312 312 310 308 308 308 310 314 314 312 311 314 311 312 313 312 311 311 312 314 314 316 316 313 314 316
325 324 324 324 323 323 321 322 322 321 321 320 319 318 319 318 317 318 318 316 316 315 315 314 313 312 310 310 309 309 308 308 307 307 307 307 307 306 306 306 305 305 306 307 309 310 311 310 311 311 309 307 306 307 307 306 307 313 311 307 312 312 312 310 308 309 310 310 312 314 314 316 315 314
324 324 323 323 323 323 323 324 323 322 321 321 320 320 319 319 316 316 316 315 314 314 314 313 312 311 312 311 310 310 310 309 308 307 306 306 305 304 304 304 303 304 305 306 308 309 310 310 309 308 306 306 308 310 310 310 311 313 316 312 305 310 312 310 308 308 308 309 310 308 309 311 311 315
323 322 322 323 322 322 321 321 321 320 320 320 320 319 318 318 317 316 315 314 314 313 312 312 311 311 309 309 309 307 306 307 307 307 307 306 305 304 304 304 305 307 306 306 307 307 308 308 310 309 309 310 312 313 310 309 309 311 312 313 304 304 307 309 311 309 308 309 308 306 306 307 308 309
322 321 321 322 321 322 320 320 320 319 319 318 317 317 318 317 315 310 313 313 313 313 311 310 309 309 307 307 305 304 303 303 304 305 304 304 303 304 304 304 305 306 306 305 305 307 310 312 312 312 312 311 310 307 306 306 307 308 310 310 313 308 306 308 307 308 311 309 307 304 305 306 307 305
320 321 319 319 320 319 319 319 318 318 317 316 316 316 315 315 314 313 312 312 311 309 309 308 309 308 307 307 306 306 304 303 304 304 304 304 303 303 303 304 304 305 305 306 308 309 309 311 311 309 309 309 308 307 305 306 306 306 308 308 309 310 311 310 306 306 308 307 306 307 308 306 303 301
319 319 318 319 319 319 318 318 317 317 317 317 315 315 314 313 313 312 312 311 309 309 308 308 308 307 307 306 306 305 305 304 304 304 303 303 303 303 304 304 304 305 305 305 305 306 307 308 308 308 306 306 306 305 305 305 304 305 306 306 308 308 307 309 311 311 308 308 307 307 307 307 307 307
319 318 318 317 317 317 316 316 316 315 314 314 313 312 312 313 312 311 311 310 309 308 307 307 307 307 306 305 304 304 304 303 304 304 304 304 304 304 305 304 304 304 304 305 304 305 305 305 306 307 306 305 305 305 305 305 304 304 304 306 306 307 306 307 305 305 307 309 309 306 308 307 308 305
Wind_Speed
6 5 4 4 5 5 5 6 6 3 4 5 5 5 5 4 6 6 5 5 6 5 4 7 4 4 3 3 4 2 4 4 4 7 6 6 5 6 3 2 2 4 5 6 7 8 9 10 11 12 13 13 14 14 14 14 15 14 14 15 14 11 8 2 4 6 8 11 10 10 9 9 8 8
5 5 5 4 5 4 5 6 5 3 3 5 5 5 4 3 5 5 6 6 7 6 6 6 1 1 2 5 4 4 5 9 4 7 7 7 7 3 7 6 2 2 3 5 7 7 8 9 10 10 11 12 13 14 14 15 15 15 15 15 15 13 10 6 3 6 8 11 10 10 10 9 8 8
5 4 5 5 5 5 6 6 6 5 4 5 4 5 4 4 5 5 5 6 3 7 6 5 4 4 3 6 5 6 7 5 4 6 7 7 6 8 9 9 6 4 3 5 6 7 8 8 9 10 11 12 13 14 14 15 15 15 15 16 16 14 12 9 4 6 9 10 10 9 9 9 8 8
4 4 5 5 5 5 5 6 5 6 6 5 5 5 4 4 5 4 5 6 6 5 5 5 6 7 5 6 5 6 8 4 6 6 6 5 6 8 3 11 6 6 6 6 6 8 8 9 9 9 9 12 13 14 14 14 15 15 15 15 15 14 12 10 7 5 8 9 9 8 9 8 8 7
6 6 6 6 6 6 7 6 6 6 6 6 5 5 5 5 4 4 4 6 6 5 5 5 4 5 4 5 4 5 5 6 7 7 6 6 6 5 6 3 8 7 7 7 7 7 8 9 8 9 9 11 12 13 14 14 14 14 14 14 14 13 12 10 8 3 5 8 8 8 8 8 7 7
6 6 6 7 7 7 7 7 7 7 7 5 5 5 5 4 4 3 4 5 5 6 5 5 5 6 4 6 5 6 7 7 6 7 7 7 6 6 6 7 6 7 8 8 5 7 8 8 9 8 8 9 10 12 13 14 14 14 14 14 13 13 12 10 7 5 3 7 9 9 8 8 7 8
7 7 7 8 7 6 6 5 6 6 6 6 6 6 6 6 5 4 3 4 6 6 6 6 6 5 6 6 6 5 5 6 6 8 8 10 11 7 8 7 3 9 10 5 4 7 7 8 8 7 7 7 8 11 12 15 15 16 15 14 13 14 12 11 9 7 1 6 7 7 8 6 6 8
8 8 7 8 7 6 6 6 6 6 6 6 5 6 5 5 5 5 5 5 5 6 7 6 7 6 7 6 6 6 6 7 7 7 5 5 6 7 8 7 8 6 8 7 4 8 8 7 7 8 8 8 8 11 14 15 15 15 15 15 14 13 13 11 9 7 4 4 6 7 7 8 7 6
8 8 8 8 7 7 7 7 7 6 6 5 6 6 5 5 5 5 5 5 5 6 7 7 6 6 7 7 6 5 6 7 7 7 7 7 6 6 7 8 7 4 9 9 8 10 9 8 7 6 9 10 9 11 14 14 14 15 15 14 14 13 12 12 10 8 5 4 5 5 7 6 6 6
8 8 9 8 8 8 7 7 6 5 6 6 7 6 6 5 6 6 6 6 6 7 7 7 8 7 7 6 6 6 5 7 8 7 6 7 5 5 6 7 6 6 5 3 3 9 9 10 8 6 8 10 10 11 14 13 14 14 14 14 13 13 13 12 11 9 7 6 5 2 5 6 6 7
9 9 9 8 8 8 8 7 7 6 6 6 7 6 5 6 5 5 4 6 9 7 7 7 7 7 5 5 6 6 4 5 6 6 6 6 5 5 6 7 6 6 6 4 7 6 8 7 5 7 9 10 13 9 13 13 14 14 14 13 13 13 12 12 11 9 8 7 4 4 3 1 3 4
9 9 9 10 8 8 7 7 7 7 6 6 6 4 3 4 6 6 5 5 7 8 8 7 7 7 8 6 5 6 4 5 5 4 5 6 7 7 6 6 6 6 5 6 3 5 7 7 8 9 11 12 13 13 9 13 14 14 14 13 13 13 12 12 11 10 8 7 7 6 5 4 3 1
9 8 9 9 10 3 3 6 5 7 7 6 6 4 3 5 6 5 5 5 5 5 9 7 6 7 6 5 6 5 5 6 6 5 5 6 7 7 7 5 4 4 6 6 5 5 7 6 4 3 4 6 6 11 12 11 13 15 13 14 14 14 13 12 11 10 9 8 7 6 5 4 3 2
7 6 3 3 11 18 9 6 7 7 9 9 9 6 5 6 4 4 4 4 4 6 7 7 6 7 7 7 7 7 8 7 4 5 6 8 8 7 7 5 2 4 7 7 6 5 5 6 4 5 4 5 7 7 8 8 9 10 12 13 14 14 14 14 13 11 10 9 8 8 7 7 6 6
9 9 8 5 7 12 14 5 8 10 10 11 11 10 9 8 7 5 4 3 6 8 8 6 7 8 8 9 8 8 8 6 6 6 7 8 7 6 7 6 3 4 7 6 6 4 4 5 4 4 4 5 7 6 7 8 10 11 11 12 12 13 13 14 13 13 12 11 10 9 8 8 7 7
8 10 8 7 5 0 4 3 2 4 16 12 9 9 9 9 11 7 5 6 6 7 6 7 7 8 8 7 7 7 6 5 6 7 7 5 6 7 7 5 7 5 6 6 6 5 3 2 6 2 3 5 6 7 7 8 11 11 12 12 13 13 13 12 12 12 12 11 11 10 10 9 8 8
10 8 8 8 6 2 2 1 4 4 6 12 10 10 9 8 6 6 6 5 6 7 7 8 8 7 6 6 5 4 5 6 7 7 6 6 6 6 6 6 7 5 5 6 6 6 5 3 6 3 3 4 5 6 8 8 10 11 11 12 13 13 13 13 12 11 11 11 11 11 11 11 11 11
9 10 7 7 6 5 4 5 7 7 7 8 8 6 7 8 9 7 8 9 7 7 8 8 8 6 1 4 4 4 5 6 7 7 7 6 6 6 6 8 6 2 3 5 6 6 5 4 5 4 2 7 7 7 6 7 8 10 11 12 12 13 13 13 13 13 12 12 12 11 11 12 12 13
10 9 8 8 7 6 7 6 8 8 8 6 7 8 10 12 8 9 7 7 7 6 6 6 6 4 2 3 3 4 3 4 5 5 6 5 5 5 5 6 5 2 3 5 5 6 7 4 4 4 3 1 5 8 8 7 7 9 10 10 11 12 13 13 13 13 13 12 11 10 10 10 12 13
8 12 9 4 6 4 7 10 14 11 7 9 9 12 12 11 10 7 6 5 8 8 5 5 5 7 9 9 8 8 6 5 4 4 4 5 5 5 6 6 6 0 7 6 6 6 8 6 5 6 5 3 3 6 8 9 10 8 8 8 9 10 11 12 12 13 13 12 11 10 8 8 8 12
8 7 6 2 5 5 3 10 11 11 11 7 11 11 12 10 10 0 7 13 13 12 12 13 14 13 11 10 10 11 12 9 8 6 5 4 6 5 4 5 5 4 6 8 8 7 8 5 5 6 6 7 3 3 5 9 9 10 9 8 7 8 9 11 11 11 12 12 12 11 9 3 2 5
3 7 14 11 8 7 7 8 9 11 8 7 8 10 9 11 8 6 6 4 6 10 12 12 11 9 8 10 10 11 11 11 8 6 5 5 5 5 4 5 5 5 7 8 9 7 7 6 6 6 7 7 6 4 0 2 7 9 10 10 9 5 5 8 9 10 10 11 12 12 14 13 9 8
6 7 12 17 12 9 6 8 8 9 8 6 8 8 9 6 6 4 4 5 6 6 6 6 6 6 6 6 7 7 9 9 8 5 5 5 5 4 4 4 4 6 4 8 10 6 6 7 5 6 6 7 2 2 0 2 3 3 1 5 6 8 6 5 7 9 8 9 10 12 13 16 14 4
4 5 7 10 9 8 8 7 8 8 8 7 6 8 7 6 5 3 1 3 3 5 6 6 7 7 7 7 6 4 3 4 6 6 6 6 5 4 5 5 5 4 4 7 10 7 7 7 7 6 7 6 6 5 5 4 2 3 3 4 3 5 9 9 6 8 8 8 8 9 11 13 14 7
3 3 4 5 7 7 8 8 8 9 9 8 5 5 4 2 4 5 5 8 12 9 8 7 5 3 1 0 2 3 3 4 5 5 6 6 5 5 5 6 6 4 5 6 9 6 6 7 6 7 7 6 7 7 5 5 2 2 3 4 2 3 5 3 4 2 9 9 8 6 8 8 12 10
6 5 5 4 4 5 7 7 8 8 9 8 6 6 6 9 10 9 7 7 6 6 6 5 4 2 2 1 1 3 4 5 5 5 5 5 5 5 5 5 5 5 4 7 6 6 6 6 6 7 7 7 7 7 7 6 1 3 4 3 2 3 4 5 4 5 5 5 2 5 3 4 6 9
4 3 4 4 6 7 8 7 8 8 8 9 7 9 12 11 10 8 7 7 7 5 4 3 2 1 1 4 4 5 5 5 5 4 5 5 5 4 5 6 5 5 5 4 5 5 5 5 6 6 7 7 7 7 7 6 3 2 4 2 2 1 2 4 5 5 6 5 4 8 7 6 5 6
7 7 7 6 8 8 8 8 10 10 10 8 10 11 11 12 9 7 6 5 5 5 2 3 4 5 5 4 5 5 5 4 3 3 2 3 3 3 3 3 3 4 4 4 4 4 4 5 5 5 7 7 7 7 7 6 5 3 3 4 6 2 3 3 4 4 5 5 6 6 5 1 4 5
5 2 6 8 7 8 4 5 8 10 10 11 10 9 7 8 6 6 5 5 4 4 4 4 4 4 4 4 4 4 2 2 2 2 2 2 2 1 1 1 1 1 2 3 3 4 4 4 5 5 6 6 7 7 6 6 7 6 4 6 6 3 4 3 4 4 4 5 6 6 5 5 4 4
2 3 4 5 7 6 5 3 5 6 7 9 9 7 5 5 5 4 4 5 5 5 4 4 3 3 3 3 3 3 3 3 4 4 4 4 3 4 4 4 3 1 1 3 2 3 4 4 4 5 6 6 6 7 6 6 6 6 5 5 4 6 3 1 4 3 3 5 6 5 4 5 4 5
2 2 2 4 5 6 8 7 6 7 5 6 6 5 6 6 5 5 5 5 5 5 3 3 4 3 3 3 3 3 2 3 3 4 5 5 4 4 5 5 4 3 2 1 2 2 4 4 4 5 5 5 6 6 6 6 7 6 5 3 3 5 5 5 4 4 4 6 6 6 4 4 3 2
3 4 6 6 3 4 5 5 5 6 6 6 6 6 7 7 7 8 9 7 5 4 3 3 3 3 2 2 2 2 3 4 4 4 4 4 4 5 4 4 3 3 3 4 3 1 2 3 5 5 5 5 6 6 5 6 7 5 4 4 4 5 5 4 5 4 5 7 6 5 4 4 4 3
3 4 3 3 5 5 6 6 6 7 7 7 6 7 5 5 5 3 3 4 4 3 3 3 3 2 1 1 2 2 2 2 2 4 4 3 5 5 4 5 5 4 5 5 5 4 4 5 5 6 6 6 6 5 5 6 5 4 4 4 4 5 5 4 5 5 6 6 5 6 5 4 4 2
3 3 3 4 5 6 6 6 6 6 6 6 6 5 3 3 3 3 3 3 3 2 2 2 3 2 1 2 2 2 2 2 2 2 3 4 4 5 5 5 5 4 5 5 5 5 5 6 6 7 6 6 5 3 4 5 5 4 4 5 5 5 4 5 4 6 5 5 6 6 5 5 3 2
3 5 5 5 4 5 5 5 5 4 4 4 4 4 4 4 4 4 5 4 3 3 3 4 3 2 3 3 3 3 3 4 4 3 4 4 4 5 6 6 6 6 6 6 6 5 5 6 6 6 6 5 6 6 3 5 4 4 5 5 4 4 5 5 6 6 6 6 4 5 6 5 3 0
5 5 6 5 5 5 5 4 5 5 5 4 4 4 4 4 5 6 6 6 6 6 5 4 4 4 4 5 4 5 4 5 4 4 5 5 5 6 6 6 6 6 6 6 6 6 6 6 6 6 7 6 6 5 6 1 3 3 5 5 4 5 5 6 6 6 6 5 4 5 6 5 4 5
4 5 5 5 4 4 4 3 3 4 4 4 4 5 5 5 5 5 5 5 5 5 6 5 5 5 5 5 5 5 5 5 6 7 6 6 6 6 6 6 6 6 6 6 6 6 5 5 6 6 6 7 6 6 2 6 2 6 4 4 5 5 6 6 6 6 5 5 6 5 6 6 6 5
5 4 4 4 4 3 3 3 3 3 4 4 4 4 4 4 4 3 3 3 4 4 4 5 5 5 5 5 5 5 6 5 6 6 6 7 7 7 7 8 7 7 7 7 6 5 4 4 5 5 6 6 7 6 6 5 4 2 4 3 5 6 6 6 6 7 7 6 6 6 6 7 7 6
4 4 4 4 3 4 4 4 3 4 3 3 3 3 3 3 3 3 3 4 4 4 3 3 4 4 4 4 4 4 4 4 5 6 6 6 7 7 8 7 7 8 7 7 5 4 3 4 3 4 5 5 6 6 7 8 8 8 3 7 5 5 6 6 7 7 8 7 7 7 8 7 9 11
4 3 3 2 2 2 2 1 2 2 3 3 4 3 3 3 3 2 2 3 4 3 4 4 4 3 3 4 5 5 4 5 5 5 6 6 6 7 6 6 6 7 7 6 6 4 4 3 4 5 6 6 7 7 9 9 10 9 9 7 4 2 4 6 6 7 7 7 8 9 8 8 7 5
4 4 4 3 3 2 2 2 2 3 3 2 2 3 3 3 3 4 4 4 3 3 3 4 4 5 5 6 6 6 7 6 6 6 6 6 6 6 6 7 6 5 6 6 6 5 4 5 6 5 8 7 8 8 8 8 7 5 7 1 9 7 5 4 4 6 7 7 8 8 8 8 8 7
3 3 4 3 4 3 3 3 3 3 3 3 3 3 2 2 3 2 1 3 3 3 4 4 4 5 5 5 5 5 6 6 7 7 6 7 7 6 6 6 6 5 6 6 6 5 5 5 6 6 6 6 6 6 7 7 7 7 7 8 6 8 8 9 10 8 6 7 7 7 7 6 6 7
3 3 3 3 3 3 3 3 3 3 3 2 2 3 2 1 1 1 2 2 2 2 3 4 4 5 5 5 5 5 5 6 6 6 6 6 5 6 5 5 5 6 6 6 6 6 6 6 6 6 6 6 6 6 8 8 9 9 9 8 8 8 5 11 16 13 11 14 14 10 6 6 7 8
3 3 3 2 2 2 2 3 3 2 2 1 1 1 2 2 1 1 2 3 3 3 4 4 5 5 6 6 6 6 6 6 7 6 6 5 6 5 6 5 6 6 6 6 6 6 6 6 6 6 7 7 7 8 9 10 9 9 10 9 9 9 9 10 9 10 14 16 16 13 9 7 6 6
3 3 3 2 2 2 2 2 2 2 2 2 2 3 2 2 2 2 2 2 3 4 4 4 5 5 6 6 6 6 6 6 6 5 5 5 5 5 4 5 5 5 5 5 6 6 6 7 7 6 7 7 8 8 9 9 10 10 10 10 10 9 9 9 9 10 10 10 6 15 11 11 11 12
Wind_Direction
273 266 262 277 286 284 292 287 288 313 311 296 310 305 306 301 298 300 312 315 320 322 340 308 65 347 338 287 325 316 336 49 316 326 325 331 330 78 303 295 38 355 355 345 344 342 345 349 352 354 354 350 348 345 345 344 346 347 346 344 344 341 340 269 191 172 170 170 170 169 163 166 174 184
265 268 275 272 274 274 264 255 265 265 267 282 276 275 281 288 282 296 298 312 326 324 322 306 12 183 353 306 322 342 335 113 283 327 324 323 350 358 276 257 146 70 4 356 354 353 354 356 359 356 354 352 350 349 347 348 348 350 350 346 344 343 338 322 207 172 163 162 164 166 165 168 178 183
263 280 277 272 270 284 291 292 281 274 262 261 267 273 276 269 278 284 288 292 266 297 310 326 343 313 356 336 324 348 332 119 353 329 331 325 353 288 267 224 159 113 88 25 4 5 5 6 4 5 4 356 358 357 356 353 350 352 355 352 347 343 338 327 271 182 164 161 160 169 168 172 178 181
260 260 267 267 271 276 275 278 278 270 257 263 272 274 270 260 257 267 278 281 288 289 301 313 318 334 353 322 344 341 323 125 181 338 306 320 256 265 306 152 130 114 88 47 26 11 19 17 15 15 7 7 5 1 359 355 351 354 355 355 352 343 337 330 307 217 169 160 157 163 173 175 179 178
265 254 258 268 271 271 271 272 272 271 264 257 254 248 248 258 253 249 258 282 290 292 305 304 318 322 321 322 348 322 333 333 342 319 323 309 311 319 327 106 134 113 84 68 32 29 28 28 30 24 15 18 10 5 360 354 353 355 355 355 354 346 341 335 326 281 175 154 145 174 178 178 176 175
260 263 254 259 259 250 251 266 275 272 274 270 267 268 264 264 272 241 263 281 295 295 294 305 320 307 318 310 339 339 322 340 322 328 316 317 318 333 339 323 102 132 86 65 51 48 39 44 41 32 28 22 17 13 2 356 354 355 358 356 355 354 351 342 330 328 177 149 169 165 176 179 177 173
246 248 250 249 249 254 255 253 259 272 282 284 291 292 290 292 286 280 255 268 283 295 299 302 298 311 317 316 320 317 319 313 319 314 337 342 327 328 333 327 352 117 97 101 102 71 67 63 47 44 39 26 23 17 13 8 2 0 1 2 357 359 357 357 343 351 41 161 157 152 173 185 182 175
247 248 250 254 261 265 267 263 271 272 269 273 266 270 277 271 277 288 281 257 268 286 294 297 300 307 308 303 303 310 313 316 325 314 320 313 302 328 334 336 331 95 133 163 146 103 98 80 66 55 42 35 34 27 24 16 9 6 4 4 7 5 360 6 3 6 46 145 138 167 168 180 189 186
266 263 263 263 258 255 256 257 256 261 260 257 265 271 271 274 273 278 287 280 263 261 274 285 285 291 287 288 289 295 306 318 312 317 318 324 334 342 332 329 337 124 164 172 161 136 127 117 100 72 53 39 50 45 35 23 16 10 8 7 10 14 8 14 15 10 41 83 136 164 153 184 187 198
249 251 251 254 256 257 257 263 272 281 286 283 269 264 274 295 315 288 283 289 272 272 277 277 281 279 288 295 305 303 300 310 319 319 324 324 335 329 332 333 335 342 350 330 153 142 146 123 114 88 76 45 56 61 44 30 20 15 10 9 13 21 22 22 24 20 15 53 86 126 154 178 175 193
251 250 249 247 249 252 253 260 261 256 254 261 273 266 280 304 269 296 319 303 300 287 280 280 283 294 293 301 299 307 309 299 296 309 319 318 329 331 332 328 339 343 342 68 81 318 11 87 105 116 99 65 51 52 57 35 26 16 13 10 14 24 30 30 31 32 28 22 46 86 92 115 178 184
262 261 260 255 253 246 239 245 248 251 259 265 274 299 63 277 296 291 303 306 285 293 293 296 318 312 300 297 297 294 280 292 297 310 316 313 323 325 326 332 343 350 333 339 336 211 173 136 135 151 122 97 72 37 43 52 30 14 12 10 15 22 29 36 37 37 39 39 31 37 67 82 69 39
260 274 285 301 292 317 60 281 284 300 312 294 277 279 298 277 262 273 291 301 310 314 297 299 289 280 293 296 297 312 316 310 310 315 312 311 315 323 320 336 3 358 336 342 340 359 335 331 14 324 22 46 40 63 39 33 32 17 11 13 15 17 22 28 35 40 43 45 51 49 45 47 40 50
281 274 266 220 287 290 259 249 239 239 255 251 265 284 262 260 274 275 292 294 296 270 267 287 298 300 302 310 314 312 309 308 303 306 318 316 324 324 319 323 29 10 348 342 333 346 325 333 17 333 22 50 47 44 38 33 19 16 18 19 19 19 18 19 23 28 36 42 52 60 62 59 53 38
270 275 258 244 233 254 257 274 327 308 272 253 241 244 254 263 265 253 234 236 257 282 291 301 300 306 315 311 310 304 308 334 337 324 322 321 328 331 328 327 335 51 354 344 325 333 323 335 338 15 9 45 46 48 51 18 30 27 28 27 27 26 26 24 24 24 27 30 37 46 55 63 66 65
259 258 265 260 258 196 56 126 176 268 286 273 243 239 233 235 244 267 256 256 261 275 294 299 305 303 299 306 306 317 336 334 323 324 320 318 326 323 318 322 322 3 3 335 326 326 304 347 310 67 24 80 65 60 33 32 34 34 29 30 29 30 30 32 33 34 35 36 38 37 44 48 51 57
278 270 265 270 281 316 107 315 251 252 266 274 254 236 235 232 225 227 229 245 262 280 278 286 292 298 311 305 321 359 340 329 312 315 308 322 317 317 310 326 324 348 345 325 334 327 310 9 311 57 94 83 80 88 53 23 44 42 38 34 34 31 31 30 32 38 44 47 51 56 61 60 57 56
270 272 268 267 269 275 241 216 236 234 234 238 248 247 246 241 207 198 212 222 226 253 275 287 285 295 315 304 337 347 331 318 320 320 319 327 317 316 323 317 311 15 339 352 335 315 326 6 326 341 12 115 99 85 60 41 51 53 46 42 37 34 33 33 30 29 33 40 47 54 68 74 72 69
251 262 269 265 266 275 278 263 251 252 241 243 241 248 256 239 222 228 234 230 205 207 242 257 268 271 300 315 311 314 319 320 327 330 323 316 321 310 304 300 277 220 65 9 345 327 319 332 320 347 328 298 123 118 113 84 71 64 58 51 44 41 38 36 33 31 30 30 30 32 37 63 80 75
250 237 233 249 274 279 290 352 358 345 310 257 254 250 251 251 237 217 102 26 20 27 16 355 14 50 55 46 28 22 358 329 305 258 258 266 273 295 336 320 314 337 89 40 5 336 316 328 330 329 316 278 236 144 123 123 101 86 75 63 55 49 46 43 39 35 31 30 31 30 21 19 58 84
250 30 25 265 287 281 39 5 356 357 335 284 269 268 262 270 285 1 66 49 40 62 69 73 76 74 77 75 58 44 30 10 353 332 314 344 348 341 327 324 320 343 67 35 12 336 305 328 333 317 317 315 323 256 152 132 132 122 106 90 73 59 55 51 47 42 37 30 25 21 29 37 314 127
70 64 61 47 40 43 38 14 15 359 331 280 277 277 291 292 308 349 78 83 84 83 85 88 93 98 87 78 68 47 32 16 14 23 8 9 340 351 335 324 324 325 68 31 6 326 309 337 327 327 317 295 244 240 158 327 134 133 119 108 104 100 68 73 65 48 41 35 26 22 8 358 326 225
66 83 65 62 56 53 37 33 29 12 356 321 309 298 291 299 291 337 163 151 134 135 130 125 121 106 89 70 61 53 39 33 35 28 15 21 4 359 344 312 320 296 88 37 1 331 321 326 332 347 325 320 340 293 93 294 315 281 267 149 129 133 150 120 104 86 63 43 35 24 15 6 343 320
65 78 75 64 55 54 51 46 41 33 19 347 335 348 352 343 331 102 123 118 170 94 71 74 62 48 41 49 45 28 62 79 62 34 30 39 13 1 325 324 323 317 353 38 3 336 318 321 321 355 325 320 312 318 300 293 285 323 327 326 334 160 175 162 134 114 93 76 56 45 23 21 6 338
80 81 69 71 51 42 43 41 39 37 30 19 16 25 6 347 43 83 84 61 73 80 80 72 62 57 322 38 79 63 44 39 52 54 43 36 34 8 358 341 333 345 55 46 350 337 329 322 325 338 327 316 302 297 320 322 276 276 313 305 339 10 339 334 336 137 132 123 97 63 53 32 29 15
25 26 64 57 56 43 48 51 50 48 48 43 63 53 52 66 79 93 86 90 80 75 74 67 57 43 51 282 104 74 55 37 32 46 50 48 35 24 24 10 354 347 1 59 13 345 334 323 348 329 323 322 315 313 311 299 359 344 306 297 350 357 338 338 336 352 339 337 47 50 20 44 58 41
26 55 62 90 52 28 31 46 53 58 77 73 70 69 64 59 57 65 70 79 80 74 93 121 142 125 94 79 55 34 26 49 21 30 42 39 36 41 41 15 7 5 356 5 15 354 337 324 334 329 324 319 309 307 292 291 299 42 313 318 336 358 13 352 340 347 343 335 347 162 186 217 119 82
20 11 32 25 358 7 17 62 62 56 60 86 97 89 84 77 67 74 73 80 94 104 102 81 55 52 40 44 43 41 30 25 29 18 62 70 68 54 37 30 9 10 326 349 13 5 342 329 326 335 317 306 305 308 315 317 310 331 320 339 312 321 7 355 339 344 337 341 331 336 336 266 159 164
72 328 317 338 347 344 18 108 97 82 77 80 79 76 84 92 95 98 100 100 101 87 83 79 80 69 61 48 47 36 358 4 345 341 340 17 17 354 30 327 216 297 297 2 5 17 341 334 321 323 311 299 295 301 309 310 319 309 346 335 302 350 352 356 338 340 346 335 326 326 328 328 326 339
347 299 288 309 336 13 22 57 61 77 91 89 86 84 89 89 96 97 96 91 80 78 68 72 74 78 69 64 60 51 32 23 28 11 7 342 21 354 357 341 321 274 342 339 356 21 346 334 328 318 305 296 292 297 302 308 304 312 314 302 326 299 234 4 337 334 346 333 322 303 307 308 315 324
181 116 38 63 63 63 48 63 86 100 106 105 98 91 77 79 77 65 61 62 66 59 61 61 59 63 72 69 59 46 56 60 38 23 15 352 355 345 354 329 301 323 328 285 321 44 345 337 327 317 305 303 300 291 306 303 291 289 292 314 321 307 333 323 322 332 355 331 315 293 275 289 283 201
101 110 136 153 148 93 99 94 89 86 89 93 88 83 82 78 76 76 78 79 74 69 64 74 59 61 25 72 52 54 45 34 34 14 14 2 348 344 337 303 310 310 319 327 310 41 317 344 327 311 296 294 290 299 298 287 282 284 299 304 302 304 306 309 328 329 357 330 309 308 306 293 297 298
137 136 128 115 119 113 108 106 103 108 101 94 97 100 102 100 95 101 95 85 79 87 108 109 116 104 139 161 187 112 80 38 20 23 354 359 350 335 322 312 314 324 323 322 318 316 333 332 317 302 288 282 280 287 288 283 288 308 309 311 310 305 305 328 321 333 334 308 299 302 305 288 266 283
286 117 105 97 98 106 106 104 111 110 109 105 98 91 84 78 81 90 90 84 100 119 108 109 100 94 98 65 14 25 20 35 3 62 355 345 343 322 322 319 317 327 322 314 319 323 332 323 313 299 269 251 247 249 278 290 302 307 314 311 304 303 318 321 326 325 310 304 302 298 303 290 265 250
130 102 95 91 82 81 86 89 94 99 92 91 102 107 94 74 69 53 45 28 28 42 52 44 36 38 24 29 17 3 14 354 337 353 346 334 323 324 324 319 326 325 322 318 321 330 329 323 316 308 292 236 232 206 18 337 300 313 315 306 316 324 320 323 326 317 309 291 294 310 296 283 288 259
116 116 122 143 121 112 99 70 54 61 67 48 24 34 73 57 36 36 42 7 5 16 22 24 31 16 12 8 10 352 4 344 336 351 337 333 332 328 323 323 320 319 318 314 323 329 332 324 322 319 315 308 291 258 163 289 332 333 324 318 334 328 320 328 321 307 293 301 317 301 288 301 315 315
117 116 118 104 108 111 115 117 104 88 73 65 60 50 53 59 50 44 33 19 43 38 21 2 20 11 12 7 350 0 359 353 347 338 330 331 328 322 317 317 318 317 314 319 327 318 323 325 325 322 321 311 305 306 43 150 287 330 337 329 324 329 333 322 311 297 311 316 306 290 305 311 300 304
126 114 98 95 91 80 67 82 79 67 60 54 54 65 66 69 71 60 37 38 36 31 33 31 33 18 17 13 0 1 353 348 336 330 333 329 326 329 331 326 324 326 323 317 312 311 318 321 324 343 329 322 315 315 318 346 343 131 149 346 323 321 319 320 316 323 318 312 298 314 313 303 297 298
102 108 112 106 92 81 73 66 67 76 73 64 60 55 58 58 54 44 42 40 32 23 26 34 40 35 22 16 4 355 349 344 335 333 332 331 334 332 326 324 326 324 319 309 308 307 324 314 336 337 336 323 315 320 323 311 298 315 210 164 283 297 314 328 320 315 318 314 317 326 309 288 282 249
89 90 100 109 112 104 103 76 44 40 58 50 44 30 36 42 39 38 39 47 46 29 15 28 26 6 3 2 345 336 331 321 319 317 319 320 321 316 309 322 316 306 299 303 307 320 320 341 353 355 337 311 301 293 291 284 287 271 258 154 227 206 305 325 317 324 312 314 324 311 307 306 306 323
94 93 88 73 73 56 44 38 41 55 68 59 52 47 12 12 360 37 21 26 18 9 347 345 342 348 350 338 344 339 330 327 323 323 325 319 316 310 319 309 293 299 309 315 318 318 333 350 341 301 269 275 275 278 269 274 287 318 328 99 192 241 184 155 323 326 308 313 307 305 302 311 319 315
90 85 76 72 66 65 66 59 40 35 26 16 357 7 13 349 54 56 105 71 357 355 347 344 337 320 325 329 332 338 330 326 325 327 326 322 320 320 314 308 312 320 317 312 313 316 322 319 308 304 302 300 299 297 302 309 308 313 313 314 302 176 177 184 200 216 262 306 312 299 299 311 320 309
82 83 80 73 64 53 45 52 42 34 34 15 29 360 334 4 355 257 327 17 350 327 334 333 333 329 322 321 327 326 325 319 321 321 316 312 316 316 316 316 326 319 313 311 315 319 321 327 319 314 314 306 305 310 306 313 312 308 305 309 317 324 266 204 206 215 219 218 226 245 287 307 311 307
88 98 91 84 90 86 54 41 33 17 355 24 15 302 358 346 336 353 346 356 344 348 349 331 322 324 327 329 329 323 318 332 329 317 321 326 318 314 316 319 317 316 317 316 320 318 323 324 326 325 315 317 325 318 313 311 309 313 313 310 304 298 298 312 306 213 209 222 223 217 228 267 287 306
76 65 78 76 60 57 46 34 24 18 5 354 347 353 332 329 357 354 14 352 359 350 333 331 325 324 328 326 327 325 334 320 299 315 317 313 316 314 308 312 315 316 312 320 319 324 328 326 320 319 316 320 317 310 306 304 305 305 302 302 304 305 305 309 306 306 307 313 209 190 194 213 224 226